User: anonymous   Login
Location: Caltech
(34.1382°N, 118.1253°W)
Time: 08:01:39
(UTC-07:00)
Language:

Cosmos 1939 Rocket - Orbit

View from above orbital plane
View from above orbital plane
View from above satellite
View from above satellite

Ground track
Ground track

The orbit data is extracted from the following two-line orbital elements,

1 19046U 88032B   17147.94811635 +.00000997 +00000-0 +79110-4 0  9995
2 19046 097.5298 195.4501 0036886 039.3861 321.0036 15.02206785569313
Epoch (UTC): 27 May 2017 22:45:17
Eccentricity: 0.0036886
inclination: 97.5298°
perigee height: 534 km
apogee height: 585 km
right ascension of ascending node: 195.4501°
argument of perigee: 39.3861°
revolutions per day: 15.02206785
mean anomaly at epoch: 321.0036°
orbit number at epoch: 56931

The dashed part of the orbit path shows where the satellite is in the earth's shadow,  

DLR